| time (UTC) | temp C | wind direction | speed KPH | gust KPH | rain 1hr cm | rain 24hr cm | rain mn cm | humidity % | barometer mb |
| 20260504081514 | 7 | 94 | 0.0 | 3.2 | 0.00 | 0.00 | 0.00 | 79 | 1008.7 |
| 20260504044548 | 3 | 314 | 0.0 | 3.2 | 0.00 | 0.00 | 0.00 | 83 | 1009.4 |
| 20260504043042 | 2 | 314 | 0.0 | 0.0 | 0.00 | 0.00 | 0.00 | 83 | 1009.6 |
| 20260504041539 | 2 | 314 | 0.0 | 1.6 | 0.00 | 0.00 | 0.00 | 83 | 1009.3 |
| 20260504040049 | 2 | 313 | 0.0 | 1.6 | 0.00 | 0.00 | 0.00 | 83 | 1009.4 |
| 20260504034550 | 2 | 284 | 0.0 | 1.6 | 0.00 | 0.00 | 0.00 | 84 | 1009.4 |
| 20260504033037 | 2 | 284 | 0.0 | 0.0 | 0.00 | 0.00 | 0.00 | 83 | 1009.4 |
| 20260504031536 | 1 | 284 | 0.0 | 0.0 | 0.00 | 0.00 | 0.00 | 83 | 1009.5 |
| 20260504030039 | 1 | 284 | 0.0 | 0.0 | 0.00 | 0.00 | 0.00 | 82 | 1009.4 |
| 20260504024536 | 1 | 284 | 0.0 | 1.6 | 0.00 | 0.00 | 0.00 | 81 | 1009.4 |
| 20260504023035 | 1 | 284 | 0.0 | 0.0 | 0.00 | 0.00 | 0.00 | 78 | 1009.5 |
| 20260504021534 | 2 | 284 | 0.0 | 1.6 | 0.00 | 0.00 | 0.00 | 76 | 1009.5 |
| 20260504020035 | 2 | 284 | 0.0 | 0.0 | 0.00 | 0.00 | 0.00 | 74 | 1009.6 |
| 20260504014535 | 2 | 284 | 0.0 | 0.0 | 0.00 | 0.00 | 0.00 | 72 | 1009.6 |
| 20260504013045 | 3 | 284 | 0.0 | 1.6 | 0.00 | 0.00 | 0.00 | 70 | 1009.5 |
| 20260504011533 | 4 | 284 | 0.0 | 1.6 | 0.00 | 0.00 | 0.00 | 68 | 1009.4 |
| 20260504010032 | 5 | 284 | 0.0 | 0.0 | 0.00 | 0.00 | 0.00 | 64 | 1009.1 |
| 20260504004532 | 6 | 284 | 0.0 | 0.0 | 0.00 | 0.00 | 0.00 | 61 | 1008.8 |
| 20260504003033 | 7 | 284 | 0.0 | 0.0 | 0.00 | 0.00 | 0.00 | 56 | 1008.7 |
| 20260504001531 | 7 | 284 | 0.0 | 0.0 | 0.00 | 0.00 | 0.00 | 54 | 1008.5 |
| 20260504000031 | 8 | 284 | 0.0 | 0.0 | 0.00 | 0.00 | 0.00 | 49 | 1008.3 |
| 20260503234531 | 9 | 284 | 0.0 | 1.6 | 0.00 | 0.00 | 0.00 | 46 | 1008.1 |
| 20260503233036 | 9 | 272 | 0.0 | 6.4 | 0.00 | 0.00 | 0.00 | 44 | 1008.0 |
| 20260503231529 | 10 | 229 | 0.0 | 6.4 | 0.00 | 0.00 | 0.00 | 42 | 1007.9 |
| 20260503230029 | 10 | 244 | 0.0 | 11.3 | 0.00 | 0.00 | 0.00 | 43 | 1007.8 |
| 20260503224528 | 10 | 164 | 0.0 | 9.7 | 0.00 | 0.00 | 0.00 | 44 | 1007.8 |
| 20260503223028 | 10 | 217 | 3.2 | 12.9 | 0.00 | 0.00 | 0.00 | 43 | 1007.9 |
| 20260503221527 | 10 | 257 | 1.6 | 9.7 | 0.00 | 0.00 | 0.00 | 45 | 1007.9 |
| 20260503220027 | 10 | 305 | 1.6 | 9.7 | 0.00 | 0.00 | 0.00 | 45 | 1008.0 |
| 20260503214525 | 10 | 258 | 0.0 | 9.7 | 0.00 | 0.00 | 0.00 | 45 | 1007.8 |
| 20260503213025 | 10 | 283 | 0.0 | 6.4 | 0.00 | 0.00 | 0.00 | 47 | 1007.9 |
| 20260503211532 | 10 | 284 | 1.6 | 6.4 | 0.00 | 0.00 | 0.00 | 46 | 1007.9 |
| 20260503210024 | 10 | 182 | 0.0 | 9.7 | 0.00 | 0.00 | 0.00 | 48 | 1007.9 |
| 20260503204522 | 10 | 180 | 3.2 | 8.0 | 0.00 | 0.00 | 0.00 | 46 | 1007.9 |
| 20260503203022 | 10 | 201 | 0.0 | 8.0 | 0.00 | 0.00 | 0.00 | 46 | 1008.0 |
| 20260503201520 | 10 | 185 | 0.0 | 9.7 | 0.00 | 0.00 | 0.00 | 46 | 1008.1 |
| 20260503200020 | 10 | 178 | 1.6 | 12.9 | 0.00 | 0.00 | 0.00 | 48 | 1008.2 |
| 20260503194518 | 8 | 229 | 1.6 | 8.0 | 0.00 | 0.00 | 0.00 | 48 | 1008.3 |
| 20260503193015 | 9 | 244 | 1.6 | 12.9 | 0.00 | 0.00 | 0.00 | 49 | 1008.5 |
| 20260503191514 | 9 | 313 | 1.6 | 9.7 | 0.00 | 0.00 | 0.00 | 48 | 1008.6 |
| 20260503190034 | 9 | 262 | 3.2 | 16.1 | 0.00 | 0.03 | 0.00 | 48 | 1008.7 |
| 20260503184513 | 8 | 245 | 1.6 | 16.1 | 0.00 | 0.03 | 0.00 | 48 | 1008.8 |
| 20260503183016 | 8 | 233 | 4.8 | 14.5 | 0.00 | 0.03 | 0.00 | 52 | 1008.8 |
| 20260503181511 | 8 | 290 | 4.8 | 16.1 | 0.00 | 0.03 | 0.00 | 48 | 1008.9 |
| 20260503180013 | 8 | 290 | 3.2 | 14.5 | 0.00 | 0.03 | 0.00 | 50 | 1008.9 |
| 20260503174512 | 8 | 164 | 1.6 | 17.7 | 0.00 | 0.03 | 0.00 | 50 | 1008.9 |
| 20260503173010 | 7 | 243 | 6.4 | 19.3 | 0.00 | 0.03 | 0.00 | 51 | 1009.0 |
| 20260503171511 | 8 | 263 | 4.8 | 19.3 | 0.00 | 0.03 | 0.00 | 49 | 1009.1 |
| 20260503150112 | 8 | 263 | 4.8 | 22.5 | 0.00 | 0.03 | 0.00 | 53 | 1009.2 |